sat.trackr.live / text

‹ back to catalog

STARLINK-32955

NORAD 63117 · 2025-039P

PAYLOAD ACTIVE UNKNOWN

§ Identity

Operator
Country
US
Launch date
2025-02-27
Launch site
AFETR
Launch vehicle
Mass (kg)
RCS (m²)

Purposes: comms

External: N2YO · Heavens-Above · Gunter

§ Orbital elements

Epoch: 2026-05-25T02:48:22.468608Z

Period
92.57 min
Inclination
42.9888°
Eccentricity
0.0024179
Mean motion
15.55508433 rev/d
Perigee alt
384.3 km
Apogee alt
417.1 km
Semi-major
6,778.8 km
B*
2.6981e-3
RAAN
287.3923°
Arg perigee
333.7450°
Mean anomaly
26.2185°
Rev number
6,991

§ Raw data

STARLINK-329551 63117U 25039P   26145.11692672  .00196011  00000+0  26981-2 0  99942 63117  42.9888 287.3923 0024179 333.7450  26.2185 15.55508433 69919

JSON: /api/v1/satellites/63117 · /tle

For live sub-satellite position, see the globe view (requires WebGL).

§ Visibility from observer

Set your observer location to see the next 7 days of passes ≥ 10°. The values pass through the URL so the page stays shareable.

No JS? Fill the form by hand. The geolocation button needs JavaScript.